Time,TemperatureF,DewpointF,PressureIn,WindDirection,WindDirectionDegrees,WindSpeedMPH,WindSpeedGustMPH,Humidity,HourlyPrecipIn,Conditions,Clouds,dailyrainin,SoftwareType,DateUTC
2013-07-31 00:02:00,71.0,59.0,-100.00,North,0,0.0,0.0,65,0.00,,,-99.99,,2013-07-31 04:02:00,
2013-07-31 00:12:00,71.0,58.0,-100.00,North,5,0.0,0.0,65,0.00,,,-99.99,,2013-07-31 04:12:00,
2013-07-31 00:22:00,71.0,58.0,-100.00,WNW,295,0.0,0.0,64,0.00,,,-99.99,,2013-07-31 04:22:00,
2013-07-31 00:32:00,71.0,58.0,-100.00,North,0,0.0,0.0,66,0.00,,,-99.99,,2013-07-31 04:32:00,
2013-07-31 01:02:00,70.0,60.0,-100.00,West,265,0.0,0.0,70,0.00,,,-99.99,,2013-07-31 05:02:00,
2013-07-31 01:11:00,70.0,60.0,-100.00,NNW,335,0.0,0.0,70,0.00,,,-99.99,,2013-07-31 05:11:00,
2013-07-31 01:22:00,70.0,60.0,-100.00,WNW,295,0.0,0.0,70,0.00,,,-99.99,,2013-07-31 05:22:00,
2013-07-31 01:32:00,70.0,60.0,-100.00,WNW,295,0.0,0.0,70,0.00,,,-99.99,,2013-07-31 05:32:00,
2013-07-31 01:42:00,70.0,59.0,-100.00,WNW,290,0.0,0.0,70,0.00,,,-99.99,,2013-07-31 05:42:00,
2013-07-31 01:52:00,70.0,59.0,-100.00,WNW,300,0.0,0.0,70,0.00,,,-99.99,,2013-07-31 05:52:00,
2013-07-31 02:02:00,70.0,59.0,-100.00,NW,310,0.0,0.0,70,0.00,,,-99.99,,2013-07-31 06:02:00,
2013-07-31 02:32:00,69.0,60.0,-100.00,WNW,300,0.0,0.0,71,0.00,,,-99.99,,2013-07-31 06:32:00,
2013-07-31 02:43:00,69.0,60.0,-100.00,NW,320,0.0,0.0,72,0.00,,,-99.99,,2013-07-31 06:43:00,
2013-07-31 02:53:00,69.0,60.0,-100.00,NW,320,0.0,0.0,72,0.00,,,-99.99,,2013-07-31 06:53:00,
2013-07-31 03:02:00,69.0,60.0,-100.00,NW,320,0.0,0.0,72,0.00,,,-99.99,,2013-07-31 07:02:00,
2013-07-31 03:12:00,69.0,60.0,-100.00,West,280,0.0,0.0,74,0.00,,,-99.99,,2013-07-31 07:12:00,
2013-07-31 03:22:00,69.0,60.0,-100.00,West,280,0.0,0.0,74,0.00,,,-99.99,,2013-07-31 07:22:00,
2013-07-31 03:32:00,69.0,60.0,-100.00,WNW,300,0.0,0.0,74,0.00,,,-99.99,,2013-07-31 07:32:00,
2013-07-31 03:43:00,69.0,60.0,-100.00,SW,220,0.0,0.0,73,0.00,,,-99.99,,2013-07-31 07:43:00,
2013-07-31 03:52:00,69.0,60.0,-100.00,West,260,0.0,0.0,74,0.00,,,-99.99,,2013-07-31 07:52:00,
2013-07-31 04:02:00,69.0,60.0,-100.00,WNW,300,0.0,0.0,74,0.00,,,-99.99,,2013-07-31 08:02:00,
2013-07-31 04:22:00,69.0,60.0,-100.00,WNW,290,0.0,0.0,74,0.00,,,-99.99,,2013-07-31 08:22:00,
2013-07-31 04:32:00,69.0,61.0,-100.00,West,280,0.0,0.0,74,0.00,,,-99.99,,2013-07-31 08:32:00,
2013-07-31 05:43:00,69.0,61.0,-100.00,NW,305,0.0,0.0,77,0.00,,,-99.99,,2013-07-31 09:43:00,
2013-07-31 06:02:00,69.0,62.0,-100.00,NNW,330,0.0,0.0,77,0.00,,,-99.99,,2013-07-31 10:02:00,
2013-07-31 06:44:00,68.0,62.0,-100.00,North,350,0.0,0.0,80,0.00,,,-99.99,,2013-07-31 10:44:00,
2013-07-31 07:03:00,68.0,62.0,-100.00,NW,320,0.0,0.0,82,0.00,,,-99.99,,2013-07-31 11:03:00,
2013-07-31 07:12:00,68.0,62.0,-100.00,NNW,335,0.0,0.0,83,0.00,,,-99.99,,2013-07-31 11:12:00,
2013-07-31 07:22:00,68.0,63.0,-100.00,North,350,0.0,0.0,83,0.00,,,-99.99,,2013-07-31 11:22:00,
2013-07-31 07:33:00,67.0,63.0,-100.00,North,0,0.0,0.0,85,0.00,,,-99.99,,2013-07-31 11:33:00,
2013-07-31 07:43:00,67.0,64.0,-100.00,North,10,0.0,0.0,89,0.00,,,-99.99,,2013-07-31 11:43:00,
2013-07-31 08:02:00,67.0,64.0,-100.00,NNE,20,0.0,0.0,90,0.00,,,-99.99,,2013-07-31 12:02:00,
2013-07-31 08:43:00,67.0,64.0,-100.00,NNE,25,0.0,0.0,91,0.00,,,-99.99,,2013-07-31 12:43:00,
2013-07-31 09:02:00,68.0,64.0,-100.00,NNE,20,0.0,0.0,89,0.00,,,-99.99,,2013-07-31 13:02:00,
2013-07-31 09:43:00,67.0,64.0,-100.00,North,350,0.0,0.0,88,0.00,,,-99.99,,2013-07-31 13:43:00,
2013-07-31 09:53:00,68.0,64.0,-100.00,North,0,0.0,0.0,88,0.00,,,-99.99,,2013-07-31 13:53:00,
2013-07-31 10:02:00,68.0,64.0,-100.00,NW,305,0.0,0.0,87,0.00,,,-99.99,,2013-07-31 14:02:00,
2013-07-31 10:12:00,69.0,64.0,-100.00,North,0,0.0,0.0,85,0.00,,,-99.99,,2013-07-31 14:12:00,
2013-07-31 10:23:00,69.0,64.0,-100.00,NNW,340,0.0,0.0,84,0.00,,,-99.99,,2013-07-31 14:23:00,
2013-07-31 10:34:00,69.0,64.0,-100.00,NNW,340,0.0,0.0,84,0.00,,,-99.99,,2013-07-31 14:34:00,
2013-07-31 10:43:00,70.0,65.0,-100.00,North,0,0.0,0.0,83,0.00,,,-99.99,,2013-07-31 14:43:00,
2013-07-31 11:02:00,70.0,64.0,-100.00,North,0,0.0,0.0,82,0.00,,,-99.99,,2013-07-31 15:02:00,
2013-07-31 11:43:00,71.0,65.0,-100.00,North,0,0.0,0.0,80,0.00,,,-99.99,,2013-07-31 15:43:00,
2013-07-31 11:53:00,71.0,65.0,-100.00,North,0,0.0,0.0,80,0.00,,,-99.99,,2013-07-31 15:53:00,
2013-07-31 12:02:00,72.0,65.0,-100.00,North,5,0.0,0.0,79,0.00,,,-99.99,,2013-07-31 16:02:00,
2013-07-31 12:44:00,72.0,64.0,-100.00,NNW,330,0.0,0.0,74,0.00,,,-99.99,,2013-07-31 16:44:00,
2013-07-31 13:03:00,72.0,64.0,-100.00,NNE,20,0.0,0.0,77,0.00,,,-99.99,,2013-07-31 17:03:00,
2013-07-31 13:43:00,71.0,64.0,-100.00,NW,315,0.0,0.0,77,0.00,,,-99.99,,2013-07-31 17:43:00,
2013-07-31 14:02:00,71.0,64.0,-100.00,NW,315,0.0,0.0,76,0.00,,,-99.99,,2013-07-31 18:02:00,
2013-07-31 14:33:00,73.0,64.0,-100.00,NNW,330,0.0,0.0,74,0.00,,,-99.99,,2013-07-31 18:33:00,
2013-07-31 14:43:00,73.0,64.0,-100.00,NNW,340,0.0,0.0,72,0.00,,,-99.99,,2013-07-31 18:43:00,
2013-07-31 16:03:00,72.0,64.0,-100.00,WNW,295,0.0,0.0,76,0.00,,,-99.99,,2013-07-31 20:03:00,
2013-07-31 16:12:00,72.0,64.0,-100.00,NNW,335,0.0,0.0,75,0.00,,,-99.99,,2013-07-31 20:12:00,
2013-07-31 16:43:00,73.0,64.0,-100.00,North,0,0.0,0.0,72,0.00,,,-99.99,,2013-07-31 20:43:00,
2013-07-31 17:13:00,73.0,65.0,-100.00,North,0,0.0,0.0,75,0.00,,,-99.99,,2013-07-31 21:13:00,
2013-07-31 18:13:00,72.0,63.0,-100.00,NW,310,0.0,0.0,75,0.00,,,-99.99,,2013-07-31 22:13:00,
2013-07-31 18:22:00,71.0,63.0,-100.00,NW,315,0.0,0.0,76,0.00,,,-99.99,,2013-07-31 22:22:00,
2013-07-31 18:33:00,72.0,63.0,-100.00,NNW,345,0.0,0.0,75,0.00,,,-99.99,,2013-07-31 22:33:00,
2013-07-31 18:43:00,73.0,64.0,-100.00,NW,315,0.0,0.0,71,0.00,,,-99.99,,2013-07-31 22:43:00,
2013-07-31 19:02:00,73.0,64.0,-100.00,NW,325,0.0,0.0,75,0.00,,,-99.99,,2013-07-31 23:02:00,
2013-07-31 19:22:00,73.0,65.0,-100.00,North,5,0.0,0.0,75,0.00,,,-99.99,,2013-07-31 23:22:00,
2013-07-31 19:42:00,73.0,65.0,-100.00,West,280,0.0,0.0,76,0.00,,,-99.99,,2013-07-31 23:42:00,
2013-07-31 19:52:00,72.0,64.0,-100.00,West,275,0.0,0.0,76,0.00,,,-99.99,,2013-07-31 23:52:00,
2013-07-31 20:02:00,72.0,64.0,-100.00,NW,320,0.0,0.0,77,0.00,,,-99.99,,2013-08-01 00:02:00,
2013-07-31 20:12:00,72.0,64.0,-100.00,West,280,0.0,0.0,77,0.00,,,-99.99,,2013-08-01 00:12:00,
2013-07-31 20:22:00,72.0,64.0,-100.00,West,280,0.0,0.0,77,0.00,,,-99.99,,2013-08-01 00:22:00,
2013-07-31 20:32:00,71.0,64.0,-100.00,WNW,290,0.0,0.0,78,0.00,,,-99.99,,2013-08-01 00:32:00,
2013-07-31 20:43:00,71.0,64.0,-100.00,NNE,15,0.0,0.0,78,0.00,,,-99.99,,2013-08-01 00:43:00,
2013-07-31 20:52:00,71.0,64.0,-100.00,NW,310,0.0,0.0,78,0.00,,,-99.99,,2013-08-01 00:52:00,
2013-07-31 21:03:00,71.0,64.0,-100.00,NW,325,0.0,0.0,79,0.00,,,-99.99,,2013-08-01 01:03:00,
2013-07-31 21:12:00,70.0,64.0,-100.00,NW,320,0.0,0.0,80,0.00,,,-99.99,,2013-08-01 01:12:00,
2013-07-31 21:22:00,70.0,64.0,-100.00,NW,320,0.0,0.0,81,0.00,,,-99.99,,2013-08-01 01:22:00,
2013-07-31 21:33:00,70.0,64.0,-100.00,North,350,0.0,0.0,82,0.00,,,-99.99,,2013-08-01 01:33:00,
2013-07-31 21:43:00,70.0,64.0,-100.00,North,0,0.0,0.0,82,0.00,,,-99.99,,2013-08-01 01:43:00,
2013-07-31 22:02:00,69.0,64.0,-100.00,North,5,0.0,0.0,83,0.00,,,-99.99,,2013-08-01 02:02:00,
2013-07-31 22:22:00,70.0,64.0,-100.00,NNW,335,0.0,0.0,83,0.00,,,-99.99,,2013-08-01 02:22:00,
2013-07-31 22:32:00,70.0,64.0,-100.00,NW,315,0.0,0.0,84,0.00,,,-99.99,,2013-08-01 02:32:00,
2013-07-31 22:43:00,70.0,65.0,-100.00,NW,320,0.0,0.0,84,0.00,,,-99.99,,2013-08-01 02:43:00,
2013-07-31 23:12:00,69.0,65.0,-100.00,NNW,345,0.0,0.0,87,0.00,,,-99.99,,2013-08-01 03:12:00,
2013-07-31 23:22:00,68.0,66.0,-100.00,NW,315,0.0,0.0,91,0.00,,,-99.99,,2013-08-01 03:22:00,
2013-07-31 23:32:00,68.0,66.0,-100.00,WNW,300,0.0,0.0,92,0.00,,,-99.99,,2013-08-01 03:32:00,
2013-07-31 23:43:00,68.0,66.0,-100.00,WNW,300,0.0,0.0,91,0.00,,,-99.99,,2013-08-01 03:43:00,